owner,sensor,date,latitude,longitude,vertical_datum,wind_speed,wind_to_direction,wind_speed_of_gust,qcFlag 
DISL,ioos:station:DISL:PPTA:1,2014-06-01T00:00:00Z,30.2791,-87.5561,0.0,0.52,202.4,-9999.0,'1111122,1111122,1111122' 
DISL,ioos:station:DISL:PPTA:1,2014-06-01T00:30:00Z,30.2791,-87.5561,0.0,1.18,340.2,-9999.0,'1111122,1111122,1111122' 
DISL,ioos:station:DISL:PPTA:1,2014-06-01T01:00:00Z,30.2791,-87.5561,0.0,2.87,26.88,-9999.0,'1111122,1111122,1111122' 
DISL,ioos:station:DISL:PPTA:1,2014-06-01T01:30:00Z,30.2791,-87.5561,0.0,2.92,29.16,-9999.0,'1111122,1111122,1111122' 
DISL,ioos:station:DISL:PPTA:1,2014-06-01T02:00:00Z,30.2791,-87.5561,0.0,2.15,42.85,-9999.0,'1111122,1111122,1111122' 
DISL,ioos:station:DISL:PPTA:1,2014-06-01T02:30:00Z,30.2791,-87.5561,0.0,1.58,49.63,-9999.0,'1111122,1111122,1111122' 
DISL,ioos:station:DISL:PPTA:1,2014-06-01T03:00:00Z,30.2791,-87.5561,0.0,3.52,74.89,-9999.0,'1111122,1111122,1111122' 
DISL,ioos:station:DISL:PPTA:1,2014-06-01T03:30:00Z,30.2791,-87.5561,0.0,3.54,101.0,-9999.0,'1111122,1111122,1111122' 
DISL,ioos:station:DISL:PPTA:1,2014-06-01T04:00:00Z,30.2791,-87.5561,0.0,4.51,108.0,-9999.0,'1111122,1111122,1111122' 
DISL,ioos:station:DISL:PPTA:1,2014-06-01T04:30:00Z,30.2791,-87.5561,0.0,4.36,110.5,-9999.0,'1111122,1111122,1111122' 
DISL,ioos:station:DISL:PPTA:1,2014-06-01T05:00:00Z,30.2791,-87.5561,0.0,4.4,107.0,-9999.0,'1111122,1111122,1111122' 
DISL,ioos:station:DISL:PPTA:1,2014-06-01T05:30:00Z,30.2791,-87.5561,0.0,3.77,105.4,-9999.0,'1111122,1111122,1111122' 
DISL,ioos:station:DISL:PPTA:1,2014-06-01T06:00:00Z,30.2791,-87.5561,0.0,3.38,100.3,-9999.0,'1111122,1111122,1111122' 
DISL,ioos:station:DISL:PPTA:1,2014-06-01T06:30:00Z,30.2791,-87.5561,0.0,4.32,94.0,-9999.0,'1111122,1111122,1111122' 
DISL,ioos:station:DISL:PPTA:1,2014-06-01T07:00:00Z,30.2791,-87.5561,0.0,4.41,86.7,-9999.0,'1111122,1111122,1111122' 
DISL,ioos:station:DISL:PPTA:1,2014-06-01T07:30:00Z,30.2791,-87.5561,0.0,3.56,97.1,-9999.0,'1111122,1111122,1111122' 
DISL,ioos:station:DISL:PPTA:1,2014-06-01T08:00:00Z,30.2791,-87.5561,0.0,3.95,93.8,-9999.0,'1111122,1111122,1111122' 
DISL,ioos:station:DISL:PPTA:1,2014-06-01T08:30:00Z,30.2791,-87.5561,0.0,4.52,84.7,-9999.0,'1111122,1111122,1111122' 
DISL,ioos:station:DISL:PPTA:1,2014-06-01T09:00:00Z,30.2791,-87.5561,0.0,4.48,78.92,-9999.0,'1111122,1111122,1111122' 
DISL,ioos:station:DISL:PPTA:1,2014-06-01T09:30:00Z,30.2791,-87.5561,0.0,4.41,76.39,-9999.0,'1111122,1111122,1111122' 
DISL,ioos:station:DISL:PPTA:1,2014-06-01T10:00:00Z,30.2791,-87.5561,0.0,4.66,75.29,-9999.0,'1111122,1111122,1111122' 
DISL,ioos:station:DISL:PPTA:1,2014-06-01T10:30:00Z,30.2791,-87.5561,0.0,4.24,77.16,-9999.0,'1111122,1111122,1111122' 
DISL,ioos:station:DISL:PPTA:1,2014-06-01T11:00:00Z,30.2791,-87.5561,0.0,4.85,76.01,-9999.0,'1111122,1111122,1111122' 
DISL,ioos:station:DISL:PPTA:1,2014-06-01T11:30:00Z,30.2791,-87.5561,0.0,5.35,78.05,-9999.0,'1111122,1111122,1111122' 
DISL,ioos:station:DISL:PPTA:1,2014-06-01T12:00:00Z,30.2791,-87.5561,0.0,5.76,84.0,-9999.0,'1111122,1111122,1111122' 
DISL,ioos:station:DISL:PPTA:1,2014-06-01T12:30:00Z,30.2791,-87.5561,0.0,5.53,79.96,-9999.0,'1111122,1111122,1111122' 
DISL,ioos:station:DISL:PPTA:1,2014-06-01T13:00:00Z,30.2791,-87.5561,0.0,6.04,78.12,-9999.0,'1111122,1111122,1111122' 
DISL,ioos:station:DISL:PPTA:1,2014-06-01T13:30:00Z,30.2791,-87.5561,0.0,6.01,83.3,-9999.0,'1111122,1111122,1111122' 
DISL,ioos:station:DISL:PPTA:1,2014-06-01T14:00:00Z,30.2791,-87.5561,0.0,6.25,84.3,-9999.0,'1111122,1111122,1111122' 
DISL,ioos:station:DISL:PPTA:1,2014-06-01T14:30:00Z,30.2791,-87.5561,0.0,4.87,86.3,-9999.0,'1111122,1111122,1111122' 
DISL,ioos:station:DISL:PPTA:1,2014-06-01T15:00:00Z,30.2791,-87.5561,0.0,5.01,99.1,-9999.0,'1111122,1111122,1111122' 
DISL,ioos:station:DISL:PPTA:1,2014-06-01T15:30:00Z,30.2791,-87.5561,0.0,4.65,87.0,-9999.0,'1111122,1111122,1111122' 
DISL,ioos:station:DISL:PPTA:1,2014-06-01T16:00:00Z,30.2791,-87.5561,0.0,4.56,92.0,-9999.0,'1111122,1111122,1111122' 
DISL,ioos:station:DISL:PPTA:1,2014-06-01T16:30:00Z,30.2791,-87.5561,0.0,5.13,99.4,-9999.0,'1111122,1111122,1111122' 
DISL,ioos:station:DISL:PPTA:1,2014-06-01T17:00:00Z,30.2791,-87.5561,0.0,5.24,95.6,-9999.0,'1111122,1111122,1111122' 
DISL,ioos:station:DISL:PPTA:1,2014-06-01T17:30:00Z,30.2791,-87.5561,0.0,6.04,84.8,-9999.0,'1111122,1111122,1111122' 
DISL,ioos:station:DISL:PPTA:1,2014-06-01T18:00:00Z,30.2791,-87.5561,0.0,5.63,96.5,-9999.0,'1111122,1111122,1111122' 
DISL,ioos:station:DISL:PPTA:1,2014-06-01T18:30:00Z,30.2791,-87.5561,0.0,5.86,89.1,-9999.0,'1111122,1111122,1111122' 
DISL,ioos:station:DISL:PPTA:1,2014-06-01T19:00:00Z,30.2791,-87.5561,0.0,5.64,98.9,-9999.0,'1111122,1111122,1111122' 
DISL,ioos:station:DISL:PPTA:1,2014-06-01T19:30:00Z,30.2791,-87.5561,0.0,5.87,95.4,-9999.0,'1111122,1111122,1111122' 
DISL,ioos:station:DISL:PPTA:1,2014-06-01T20:00:00Z,30.2791,-87.5561,0.0,5.36,110.0,-9999.0,'1111122,1111122,1111122' 
DISL,ioos:station:DISL:PPTA:1,2014-06-01T20:30:00Z,30.2791,-87.5561,0.0,5.14,109.5,-9999.0,'1111122,1111122,1111122' 
DISL,ioos:station:DISL:PPTA:1,2014-06-01T21:00:00Z,30.2791,-87.5561,0.0,5.7,111.0,-9999.0,'1111122,1111122,1111122' 
DISL,ioos:station:DISL:PPTA:1,2014-06-01T21:30:00Z,30.2791,-87.5561,0.0,5.66,111.8,-9999.0,'1111122,1111122,1111122' 
DISL,ioos:station:DISL:PPTA:1,2014-06-01T22:00:00Z,30.2791,-87.5561,0.0,4.76,119.3,-9999.0,'1111122,1111122,1111122' 
DISL,ioos:station:DISL:PPTA:1,2014-06-01T22:30:00Z,30.2791,-87.5561,0.0,4.73,115.5,-9999.0,'1111122,1111122,1111122' 
DISL,ioos:station:DISL:PPTA:1,2014-06-01T23:00:00Z,30.2791,-87.5561,0.0,4.45,114.0,-9999.0,'1111122,1111122,1111122' 
DISL,ioos:station:DISL:PPTA:1,2014-06-01T23:30:00Z,30.2791,-87.5561,0.0,4.91,111.8,-9999.0,'1111122,1111122,1111122' 
DISL,ioos:station:DISL:PPTA:1,2014-06-02T00:00:00Z,30.2791,-87.5561,0.0,4.79,114.3,-9999.0,'1111122,1111122,1111122' 
DISL,ioos:station:DISL:PPTA:1,2014-06-02T00:30:00Z,30.2791,-87.5561,0.0,4.61,118.4,-9999.0,'1111122,1111122,1111122' 
DISL,ioos:station:DISL:PPTA:1,2014-06-02T01:00:00Z,30.2791,-87.5561,0.0,4.07,115.2,-9999.0,'1111122,1111122,1111122' 
DISL,ioos:station:DISL:PPTA:1,2014-06-02T01:30:00Z,30.2791,-87.5561,0.0,3.67,123.3,-9999.0,'1111122,1111122,1111122' 
DISL,ioos:station:DISL:PPTA:1,2014-06-02T02:00:00Z,30.2791,-87.5561,0.0,4.61,119.1,-9999.0,'1111122,1111122,1111122' 
DISL,ioos:station:DISL:PPTA:1,2014-06-02T02:30:00Z,30.2791,-87.5561,0.0,4.85,116.4,-9999.0,'1111122,1111122,1111122' 
DISL,ioos:station:DISL:PPTA:1,2014-06-02T03:00:00Z,30.2791,-87.5561,0.0,4.42,114.8,-9999.0,'1111122,1111122,1111122' 
DISL,ioos:station:DISL:PPTA:1,2014-06-02T03:30:00Z,30.2791,-87.5561,0.0,5.02,113.4,-9999.0,'1111122,1111122,1111122' 
DISL,ioos:station:DISL:PPTA:1,2014-06-02T04:00:00Z,30.2791,-87.5561,0.0,5.45,110.2,-9999.0,'1111122,1111122,1111122' 
DISL,ioos:station:DISL:PPTA:1,2014-06-02T04:30:00Z,30.2791,-87.5561,0.0,5.84,89.8,-9999.0,'1111122,1111122,1111122' 
DISL,ioos:station:DISL:PPTA:1,2014-06-02T05:00:00Z,30.2791,-87.5561,0.0,6.53,85.5,-9999.0,'1111122,1111122,1111122' 
DISL,ioos:station:DISL:PPTA:1,2014-06-02T05:30:00Z,30.2791,-87.5561,0.0,5.55,97.6,-9999.0,'1111122,1111122,1111122' 
DISL,ioos:station:DISL:PPTA:1,2014-06-02T06:00:00Z,30.2791,-87.5561,0.0,5.86,99.1,-9999.0,'1111122,1111122,1111122' 
DISL,ioos:station:DISL:PPTA:1,2014-06-02T06:30:00Z,30.2791,-87.5561,0.0,5.97,105.0,-9999.0,'1111122,1111122,1111122' 
DISL,ioos:station:DISL:PPTA:1,2014-06-02T07:00:00Z,30.2791,-87.5561,0.0,6.07,103.3,-9999.0,'1111122,1111122,1111122' 
DISL,ioos:station:DISL:PPTA:1,2014-06-02T07:30:00Z,30.2791,-87.5561,0.0,7.23,88.7,-9999.0,'1111122,1111122,1111122' 
DISL,ioos:station:DISL:PPTA:1,2014-06-02T08:00:00Z,30.2791,-87.5561,0.0,8.6,84.0,-9999.0,'1111122,1111122,1111122' 
DISL,ioos:station:DISL:PPTA:1,2014-06-02T08:30:00Z,30.2791,-87.5561,0.0,6.64,93.7,-9999.0,'1111122,1111122,1111122' 
DISL,ioos:station:DISL:PPTA:1,2014-06-02T09:00:00Z,30.2791,-87.5561,0.0,6.41,91.3,-9999.0,'1111122,1111122,1111122' 
DISL,ioos:station:DISL:PPTA:1,2014-06-02T09:30:00Z,30.2791,-87.5561,0.0,7.77,85.6,-9999.0,'1111122,1111122,1111122' 
DISL,ioos:station:DISL:PPTA:1,2014-06-02T10:00:00Z,30.2791,-87.5561,0.0,7.47,80.3,-9999.0,'1111122,1111122,1111122' 
DISL,ioos:station:DISL:PPTA:1,2014-06-02T10:30:00Z,30.2791,-87.5561,0.0,7.09,77.07,-9999.0,'1111122,1111122,1111122' 
DISL,ioos:station:DISL:PPTA:1,2014-06-02T11:00:00Z,30.2791,-87.5561,0.0,7.27,74.51,-9999.0,'1111122,1111122,1111122' 
DISL,ioos:station:DISL:PPTA:1,2014-06-02T11:30:00Z,30.2791,-87.5561,0.0,6.86,77.0,-9999.0,'1111122,1111122,1111122' 
DISL,ioos:station:DISL:PPTA:1,2014-06-02T12:00:00Z,30.2791,-87.5561,0.0,6.55,76.65,-9999.0,'1111122,1111122,1111122' 
DISL,ioos:station:DISL:PPTA:1,2014-06-02T12:30:00Z,30.2791,-87.5561,0.0,6.55,80.3,-9999.0,'1111122,1111122,1111122' 
DISL,ioos:station:DISL:PPTA:1,2014-06-02T13:00:00Z,30.2791,-87.5561,0.0,6.87,76.72,-9999.0,'1111122,1111122,1111122' 
DISL,ioos:station:DISL:PPTA:1,2014-06-02T13:30:00Z,30.2791,-87.5561,0.0,6.71,80.2,-9999.0,'1111122,1111122,1111122' 
DISL,ioos:station:DISL:PPTA:1,2014-06-02T14:00:00Z,30.2791,-87.5561,0.0,6.85,81.0,-9999.0,'1111122,1111122,1111122' 
DISL,ioos:station:DISL:PPTA:1,2014-06-02T14:30:00Z,30.2791,-87.5561,0.0,7.35,83.5,-9999.0,'1111122,1111122,1111122' 
DISL,ioos:station:DISL:PPTA:1,2014-06-02T15:00:00Z,30.2791,-87.5561,0.0,8.4,85.2,-9999.0,'1111122,1111122,1111122' 
DISL,ioos:station:DISL:PPTA:1,2014-06-02T15:30:00Z,30.2791,-87.5561,0.0,8.22,84.9,-9999.0,'1111122,1111122,1111122' 
DISL,ioos:station:DISL:PPTA:1,2014-06-02T16:00:00Z,30.2791,-87.5561,0.0,8.21,85.3,-9999.0,'1111122,1111122,1111122' 
DISL,ioos:station:DISL:PPTA:1,2014-06-02T16:30:00Z,30.2791,-87.5561,0.0,6.98,85.4,-9999.0,'1111122,1111122,1111122' 
DISL,ioos:station:DISL:PPTA:1,2014-06-02T17:00:00Z,30.2791,-87.5561,0.0,6.38,84.9,-9999.0,'1111122,1111122,1111122' 
DISL,ioos:station:DISL:PPTA:1,2014-06-02T17:30:00Z,30.2791,-87.5561,0.0,7.34,85.4,-9999.0,'1111122,1111122,1111122' 
DISL,ioos:station:DISL:PPTA:1,2014-06-02T18:00:00Z,30.2791,-87.5561,0.0,7.28,86.1,-9999.0,'1111122,1111122,1111122' 
DISL,ioos:station:DISL:PPTA:1,2014-06-02T18:30:00Z,30.2791,-87.5561,0.0,6.75,85.5,-9999.0,'1111122,1111122,1111122' 
DISL,ioos:station:DISL:PPTA:1,2014-06-02T19:00:00Z,30.2791,-87.5561,0.0,6.46,89.2,-9999.0,'1111122,1111122,1111122' 
DISL,ioos:station:DISL:PPTA:1,2014-06-02T19:30:00Z,30.2791,-87.5561,0.0,5.64,89.4,-9999.0,'1111122,1111122,1111122' 
DISL,ioos:station:DISL:PPTA:1,2014-06-02T20:00:00Z,30.2791,-87.5561,0.0,4.65,108.0,-9999.0,'1111122,1111122,1111122' 
DISL,ioos:station:DISL:PPTA:1,2014-06-02T20:30:00Z,30.2791,-87.5561,0.0,5.44,76.52,-9999.0,'1111122,1111122,1111122' 
DISL,ioos:station:DISL:PPTA:1,2014-06-02T21:00:00Z,30.2791,-87.5561,0.0,4.82,123.4,-9999.0,'1111122,1111122,1111122' 
DISL,ioos:station:DISL:PPTA:1,2014-06-02T21:30:00Z,30.2791,-87.5561,0.0,4.84,122.1,-9999.0,'1111122,1111122,1111122' 
DISL,ioos:station:DISL:PPTA:1,2014-06-02T22:00:00Z,30.2791,-87.5561,0.0,5.58,118.5,-9999.0,'1111122,1111122,1111122' 
DISL,ioos:station:DISL:PPTA:1,2014-06-02T22:30:00Z,30.2791,-87.5561,0.0,6.55,115.5,-9999.0,'1111122,1111122,1111122' 
DISL,ioos:station:DISL:PPTA:1,2014-06-02T23:00:00Z,30.2791,-87.5561,0.0,7.11,137.6,-9999.0,'1111122,1111122,1111122' 
DISL,ioos:station:DISL:PPTA:1,2014-06-02T23:30:00Z,30.2791,-87.5561,0.0,4.65,158.1,-9999.0,'1111122,1111122,1111122' 
DISL,ioos:station:DISL:PPTA:1,2014-06-03T00:00:00Z,30.2791,-87.5561,0.0,5.23,152.0,-9999.0,'1111122,1111122,1111122' 
DISL,ioos:station:DISL:PPTA:1,2014-06-03T00:30:00Z,30.2791,-87.5561,0.0,5.36,128.1,-9999.0,'1111122,1111122,1111122' 
DISL,ioos:station:DISL:PPTA:1,2014-06-03T01:00:00Z,30.2791,-87.5561,0.0,4.98,140.6,-9999.0,'1111122,1111122,1111122' 
DISL,ioos:station:DISL:PPTA:1,2014-06-03T01:30:00Z,30.2791,-87.5561,0.0,5.79,132.7,-9999.0,'1111122,1111122,1111122' 
DISL,ioos:station:DISL:PPTA:1,2014-06-03T02:00:00Z,30.2791,-87.5561,0.0,3.63,122.8,-9999.0,'1111122,1111122,1111122' 
DISL,ioos:station:DISL:PPTA:1,2014-06-03T02:30:00Z,30.2791,-87.5561,0.0,3.47,116.1,-9999.0,'1111122,1111122,1111122' 
DISL,ioos:station:DISL:PPTA:1,2014-06-03T03:00:00Z,30.2791,-87.5561,0.0,5.2,118.4,-9999.0,'1111122,1111122,1111122' 
DISL,ioos:station:DISL:PPTA:1,2014-06-03T03:30:00Z,30.2791,-87.5561,0.0,5.84,116.6,-9999.0,'1111122,1111122,1111122' 
DISL,ioos:station:DISL:PPTA:1,2014-06-03T04:00:00Z,30.2791,-87.5561,0.0,5.43,115.6,-9999.0,'1111122,1111122,1111122' 
DISL,ioos:station:DISL:PPTA:1,2014-06-03T04:30:00Z,30.2791,-87.5561,0.0,5.39,111.0,-9999.0,'1111122,1111122,1111122' 
DISL,ioos:station:DISL:PPTA:1,2014-06-03T05:00:00Z,30.2791,-87.5561,0.0,5.24,114.8,-9999.0,'1111122,1111122,1111122' 
DISL,ioos:station:DISL:PPTA:1,2014-06-03T05:30:00Z,30.2791,-87.5561,0.0,4.04,110.2,-9999.0,'1111122,1111122,1111122' 
DISL,ioos:station:DISL:PPTA:1,2014-06-03T06:00:00Z,30.2791,-87.5561,0.0,4.21,112.1,-9999.0,'1111122,1111122,1111122' 
DISL,ioos:station:DISL:PPTA:1,2014-06-03T06:30:00Z,30.2791,-87.5561,0.0,4.0,108.5,-9999.0,'1111122,1111122,1111122' 
DISL,ioos:station:DISL:PPTA:1,2014-06-03T07:00:00Z,30.2791,-87.5561,0.0,3.6,106.7,-9999.0,'1111122,1111122,1111122' 
DISL,ioos:station:DISL:PPTA:1,2014-06-03T07:30:00Z,30.2791,-87.5561,0.0,3.93,108.1,-9999.0,'1111122,1111122,1111122' 
DISL,ioos:station:DISL:PPTA:1,2014-06-03T08:00:00Z,30.2791,-87.5561,0.0,4.42,111.7,-9999.0,'1111122,1111122,1111122' 
DISL,ioos:station:DISL:PPTA:1,2014-06-03T08:30:00Z,30.2791,-87.5561,0.0,1.67,171.2,-9999.0,'1111122,1111122,1111122' 
DISL,ioos:station:DISL:PPTA:1,2014-06-03T09:00:00Z,30.2791,-87.5561,0.0,2.27,52.16,-9999.0,'1111122,1111122,1111122' 
DISL,ioos:station:DISL:PPTA:1,2014-06-03T09:30:00Z,30.2791,-87.5561,0.0,4.67,168.1,-9999.0,'1111122,1111122,1111122' 
DISL,ioos:station:DISL:PPTA:1,2014-06-03T10:00:00Z,30.2791,-87.5561,0.0,1.53,160.9,-9999.0,'1111122,1111122,1111122' 
DISL,ioos:station:DISL:PPTA:1,2014-06-03T10:30:00Z,30.2791,-87.5561,0.0,1.53,60.41,-9999.0,'1111122,1111122,1111122' 
DISL,ioos:station:DISL:PPTA:1,2014-06-03T11:00:00Z,30.2791,-87.5561,0.0,1.38,33.84,-9999.0,'1111122,1111122,1111122' 
DISL,ioos:station:DISL:PPTA:1,2014-06-03T11:30:00Z,30.2791,-87.5561,0.0,2.0,17.0,-9999.0,'1111122,1111122,1111122' 
DISL,ioos:station:DISL:PPTA:1,2014-06-03T12:00:00Z,30.2791,-87.5561,0.0,0.97,306.0,-9999.0,'1111122,1111122,1111122' 
DISL,ioos:station:DISL:PPTA:1,2014-06-03T12:30:00Z,30.2791,-87.5561,0.0,1.77,39.78,-9999.0,'1111122,1111122,1111122' 
DISL,ioos:station:DISL:PPTA:1,2014-06-03T13:00:00Z,30.2791,-87.5561,0.0,1.49,244.7,-9999.0,'1111122,1111122,1111122' 
DISL,ioos:station:DISL:PPTA:1,2014-06-03T13:30:00Z,30.2791,-87.5561,0.0,1.53,251.4,-9999.0,'1111122,1111122,1111122' 
DISL,ioos:station:DISL:PPTA:1,2014-06-03T14:00:00Z,30.2791,-87.5561,0.0,1.69,269.4,-9999.0,'1111122,1111122,1111122' 
DISL,ioos:station:DISL:PPTA:1,2014-06-03T14:30:00Z,30.2791,-87.5561,0.0,2.21,294.8,-9999.0,'1111122,1111122,1111122' 
DISL,ioos:station:DISL:PPTA:1,2014-06-03T15:00:00Z,30.2791,-87.5561,0.0,3.44,263.4,-9999.0,'1111122,1111122,1111122' 
DISL,ioos:station:DISL:PPTA:1,2014-06-03T15:30:00Z,30.2791,-87.5561,0.0,2.43,231.1,-9999.0,'1111122,1111122,1111122' 
DISL,ioos:station:DISL:PPTA:1,2014-06-03T16:00:00Z,30.2791,-87.5561,0.0,2.32,228.8,-9999.0,'1111122,1111122,1111122' 
DISL,ioos:station:DISL:PPTA:1,2014-06-03T16:30:00Z,30.2791,-87.5561,0.0,0.91,252.0,-9999.0,'1111122,1111122,1111122' 
DISL,ioos:station:DISL:PPTA:1,2014-06-03T17:00:00Z,30.2791,-87.5561,0.0,2.27,130.9,-9999.0,'1111122,1111122,1111122' 
DISL,ioos:station:DISL:PPTA:1,2014-06-03T17:30:00Z,30.2791,-87.5561,0.0,1.69,114.0,-9999.0,'1111122,1111122,1111122' 
DISL,ioos:station:DISL:PPTA:1,2014-06-03T18:00:00Z,30.2791,-87.5561,0.0,2.94,109.8,-9999.0,'1111122,1111122,1111122' 
DISL,ioos:station:DISL:PPTA:1,2014-06-03T18:30:00Z,30.2791,-87.5561,0.0,3.23,115.2,-9999.0,'1111122,1111122,1111122' 
DISL,ioos:station:DISL:PPTA:1,2014-06-03T19:00:00Z,30.2791,-87.5561,0.0,3.61,114.6,-9999.0,'1111122,1111122,1111122' 
DISL,ioos:station:DISL:PPTA:1,2014-06-03T19:30:00Z,30.2791,-87.5561,0.0,4.06,113.5,-9999.0,'1111122,1111122,1111122' 
DISL,ioos:station:DISL:PPTA:1,2014-06-03T20:00:00Z,30.2791,-87.5561,0.0,4.53,116.2,-9999.0,'1111122,1111122,1111122' 
DISL,ioos:station:DISL:PPTA:1,2014-06-03T20:30:00Z,30.2791,-87.5561,0.0,3.7,121.5,-9999.0,'1111122,1111122,1111122' 
DISL,ioos:station:DISL:PPTA:1,2014-06-03T21:00:00Z,30.2791,-87.5561,0.0,4.32,125.3,-9999.0,'1111122,1111122,1111122' 
DISL,ioos:station:DISL:PPTA:1,2014-06-03T21:30:00Z,30.2791,-87.5561,0.0,3.58,127.4,-9999.0,'1111122,1111122,1111122' 
DISL,ioos:station:DISL:PPTA:1,2014-06-03T22:00:00Z,30.2791,-87.5561,0.0,3.07,121.5,-9999.0,'1111122,1111122,1111122' 
DISL,ioos:station:DISL:PPTA:1,2014-06-03T22:30:00Z,30.2791,-87.5561,0.0,3.43,119.4,-9999.0,'1111122,1111122,1111122' 
DISL,ioos:station:DISL:PPTA:1,2014-06-03T23:00:00Z,30.2791,-87.5561,0.0,3.8,115.6,-9999.0,'1111122,1111122,1111122' 
DISL,ioos:station:DISL:PPTA:1,2014-06-03T23:30:00Z,30.2791,-87.5561,0.0,3.45,125.1,-9999.0,'1111122,1111122,1111122' 
DISL,ioos:station:DISL:PPTA:1,2014-06-04T00:00:00Z,30.2791,-87.5561,0.0,3.81,127.4,-9999.0,'1111122,1111122,1111122' 
DISL,ioos:station:DISL:PPTA:1,2014-06-04T00:30:00Z,30.2791,-87.5561,0.0,3.38,131.7,-9999.0,'1111122,1111122,1111122' 
DISL,ioos:station:DISL:PPTA:1,2014-06-04T01:00:00Z,30.2791,-87.5561,0.0,2.98,129.5,-9999.0,'1111122,1111122,1111122' 
DISL,ioos:station:DISL:PPTA:1,2014-06-04T01:30:00Z,30.2791,-87.5561,0.0,2.19,119.4,-9999.0,'1111122,1111122,1111122' 
DISL,ioos:station:DISL:PPTA:1,2014-06-04T02:00:00Z,30.2791,-87.5561,0.0,2.29,125.8,-9999.0,'1111122,1111122,1111122' 
DISL,ioos:station:DISL:PPTA:1,2014-06-04T02:30:00Z,30.2791,-87.5561,0.0,2.52,123.1,-9999.0,'1111122,1111122,1111122' 
DISL,ioos:station:DISL:PPTA:1,2014-06-04T03:00:00Z,30.2791,-87.5561,0.0,2.74,128.4,-9999.0,'1111122,1111122,1111122' 
DISL,ioos:station:DISL:PPTA:1,2014-06-04T03:30:00Z,30.2791,-87.5561,0.0,2.51,124.1,-9999.0,'1111122,1111122,1111122' 
DISL,ioos:station:DISL:PPTA:1,2014-06-04T04:00:00Z,30.2791,-87.5561,0.0,3.11,133.1,-9999.0,'1111122,1111122,1111122' 
DISL,ioos:station:DISL:PPTA:1,2014-06-04T04:30:00Z,30.2791,-87.5561,0.0,3.35,133.4,-9999.0,'1111122,1111122,1111122' 
DISL,ioos:station:DISL:PPTA:1,2014-06-04T05:00:00Z,30.2791,-87.5561,0.0,3.34,132.0,-9999.0,'1111122,1111122,1111122' 
DISL,ioos:station:DISL:PPTA:1,2014-06-04T05:30:00Z,30.2791,-87.5561,0.0,3.24,130.7,-9999.0,'1111122,1111122,1111122' 
DISL,ioos:station:DISL:PPTA:1,2014-06-04T06:00:00Z,30.2791,-87.5561,0.0,2.91,133.2,-9999.0,'1111122,1111122,1111122' 
DISL,ioos:station:DISL:PPTA:1,2014-06-04T06:30:00Z,30.2791,-87.5561,0.0,3.02,133.6,-9999.0,'1111122,1111122,1111122' 
DISL,ioos:station:DISL:PPTA:1,2014-06-04T07:00:00Z,30.2791,-87.5561,0.0,2.36,123.2,-9999.0,'1111122,1111122,1111122' 
DISL,ioos:station:DISL:PPTA:1,2014-06-04T07:30:00Z,30.2791,-87.5561,0.0,1.42,100.2,-9999.0,'1111122,1111122,1111122' 
DISL,ioos:station:DISL:PPTA:1,2014-06-04T08:00:00Z,30.2791,-87.5561,0.0,1.7,101.1,-9999.0,'1111122,1111122,1111122' 
DISL,ioos:station:DISL:PPTA:1,2014-06-04T08:30:00Z,30.2791,-87.5561,0.0,2.4,114.4,-9999.0,'1111122,1111122,1111122' 
DISL,ioos:station:DISL:PPTA:1,2014-06-04T09:00:00Z,30.2791,-87.5561,0.0,2.78,118.3,-9999.0,'1111122,1111122,1111122' 
DISL,ioos:station:DISL:PPTA:1,2014-06-04T09:30:00Z,30.2791,-87.5561,0.0,2.32,120.1,-9999.0,'1111122,1111122,1111122' 
DISL,ioos:station:DISL:PPTA:1,2014-06-04T10:00:00Z,30.2791,-87.5561,0.0,2.5,114.8,-9999.0,'1111122,1111122,1111122' 
DISL,ioos:station:DISL:PPTA:1,2014-06-04T10:30:00Z,30.2791,-87.5561,0.0,2.54,112.8,-9999.0,'1111122,1111122,1111122' 
DISL,ioos:station:DISL:PPTA:1,2014-06-04T11:00:00Z,30.2791,-87.5561,0.0,2.25,116.5,-9999.0,'1111122,1111122,1111122' 
DISL,ioos:station:DISL:PPTA:1,2014-06-04T11:30:00Z,30.2791,-87.5561,0.0,2.03,101.4,-9999.0,'1111122,1111122,1111122' 
DISL,ioos:station:DISL:PPTA:1,2014-06-04T12:00:00Z,30.2791,-87.5561,0.0,1.71,89.0,-9999.0,'1111122,1111122,1111122' 
DISL,ioos:station:DISL:PPTA:1,2014-06-04T12:30:00Z,30.2791,-87.5561,0.0,2.29,110.8,-9999.0,'1111122,1111122,1111122' 
DISL,ioos:station:DISL:PPTA:1,2014-06-04T13:00:00Z,30.2791,-87.5561,0.0,2.64,114.9,-9999.0,'1111122,1111122,1111122' 
DISL,ioos:station:DISL:PPTA:1,2014-06-04T13:30:00Z,30.2791,-87.5561,0.0,2.54,119.4,-9999.0,'1111122,1111122,1111122' 
DISL,ioos:station:DISL:PPTA:1,2014-06-04T14:00:00Z,30.2791,-87.5561,0.0,2.8,121.9,-9999.0,'1111122,1111122,1111122' 
DISL,ioos:station:DISL:PPTA:1,2014-06-04T14:30:00Z,30.2791,-87.5561,0.0,3.05,126.0,-9999.0,'1111122,1111122,1111122' 
DISL,ioos:station:DISL:PPTA:1,2014-06-04T15:00:00Z,30.2791,-87.5561,0.0,3.53,134.2,-9999.0,'1111122,1111122,1111122' 
DISL,ioos:station:DISL:PPTA:1,2014-06-04T15:30:00Z,30.2791,-87.5561,0.0,2.97,128.1,-9999.0,'1111122,1111122,1111122' 
DISL,ioos:station:DISL:PPTA:1,2014-06-04T16:00:00Z,30.2791,-87.5561,0.0,2.66,128.7,-9999.0,'1111122,1111122,1111122' 
DISL,ioos:station:DISL:PPTA:1,2014-06-04T16:30:00Z,30.2791,-87.5561,0.0,2.83,119.2,-9999.0,'1111122,1111122,1111122' 
DISL,ioos:station:DISL:PPTA:1,2014-06-04T17:00:00Z,30.2791,-87.5561,0.0,2.88,119.0,-9999.0,'1111122,1111122,1111122' 
DISL,ioos:station:DISL:PPTA:1,2014-06-04T17:30:00Z,30.2791,-87.5561,0.0,2.91,120.5,-9999.0,'1111122,1111122,1111122' 
DISL,ioos:station:DISL:PPTA:1,2014-06-04T18:00:00Z,30.2791,-87.5561,0.0,3.23,125.7,-9999.0,'1111122,1111122,1111122' 
DISL,ioos:station:DISL:PPTA:1,2014-06-04T18:30:00Z,30.2791,-87.5561,0.0,3.22,118.0,-9999.0,'1111122,1111122,1111122' 
DISL,ioos:station:DISL:PPTA:1,2014-06-04T19:00:00Z,30.2791,-87.5561,0.0,3.32,125.0,-9999.0,'1111122,1111122,1111122' 
DISL,ioos:station:DISL:PPTA:1,2014-06-04T19:30:00Z,30.2791,-87.5561,0.0,4.11,135.4,-9999.0,'1111122,1111122,1111122' 
DISL,ioos:station:DISL:PPTA:1,2014-06-04T20:00:00Z,30.2791,-87.5561,0.0,4.41,137.4,-9999.0,'1111122,1111122,1111122' 
DISL,ioos:station:DISL:PPTA:1,2014-06-04T20:30:00Z,30.2791,-87.5561,0.0,3.82,138.0,-9999.0,'1111122,1111122,1111122' 
DISL,ioos:station:DISL:PPTA:1,2014-06-04T21:00:00Z,30.2791,-87.5561,0.0,3.61,144.1,-9999.0,'1111122,1111122,1111122' 
DISL,ioos:station:DISL:PPTA:1,2014-06-04T21:30:00Z,30.2791,-87.5561,0.0,3.4,151.9,-9999.0,'1111122,1111122,1111122' 
DISL,ioos:station:DISL:PPTA:1,2014-06-04T22:00:00Z,30.2791,-87.5561,0.0,3.77,154.0,-9999.0,'1111122,1111122,1111122' 
DISL,ioos:station:DISL:PPTA:1,2014-06-04T22:30:00Z,30.2791,-87.5561,0.0,3.55,158.1,-9999.0,'1111122,1111122,1111122' 
DISL,ioos:station:DISL:PPTA:1,2014-06-04T23:00:00Z,30.2791,-87.5561,0.0,3.13,160.3,-9999.0,'1111122,1111122,1111122' 
DISL,ioos:station:DISL:PPTA:1,2014-06-04T23:30:00Z,30.2791,-87.5561,0.0,2.99,167.8,-9999.0,'1111122,1111122,1111122' 
DISL,ioos:station:DISL:PPTA:1,2014-06-05T00:00:00Z,30.2791,-87.5561,0.0,3.22,173.5,-9999.0,'1111122,1111122,1111122' 
DISL,ioos:station:DISL:PPTA:1,2014-06-05T00:30:00Z,30.2791,-87.5561,0.0,3.4,172.5,-9999.0,'1111122,1111122,1111122' 
DISL,ioos:station:DISL:PPTA:1,2014-06-05T01:00:00Z,30.2791,-87.5561,0.0,3.33,172.7,-9999.0,'1111122,1111122,1111122' 
DISL,ioos:station:DISL:PPTA:1,2014-06-05T01:30:00Z,30.2791,-87.5561,0.0,3.55,171.5,-9999.0,'1111122,1111122,1111122' 
DISL,ioos:station:DISL:PPTA:1,2014-06-05T02:00:00Z,30.2791,-87.5561,0.0,3.43,172.0,-9999.0,'1111122,1111122,1111122' 
DISL,ioos:station:DISL:PPTA:1,2014-06-05T02:30:00Z,30.2791,-87.5561,0.0,3.44,172.2,-9999.0,'1111122,1111122,1111122' 
DISL,ioos:station:DISL:PPTA:1,2014-06-05T03:00:00Z,30.2791,-87.5561,0.0,2.99,174.2,-9999.0,'1111122,1111122,1111122' 
DISL,ioos:station:DISL:PPTA:1,2014-06-05T03:30:00Z,30.2791,-87.5561,0.0,3.05,174.1,-9999.0,'1111122,1111122,1111122' 
DISL,ioos:station:DISL:PPTA:1,2014-06-05T04:00:00Z,30.2791,-87.5561,0.0,4.07,173.4,-9999.0,'1111122,1111122,1111122' 
DISL,ioos:station:DISL:PPTA:1,2014-06-05T04:30:00Z,30.2791,-87.5561,0.0,3.66,175.9,-9999.0,'1111122,1111122,1111122' 
DISL,ioos:station:DISL:PPTA:1,2014-06-05T05:00:00Z,30.2791,-87.5561,0.0,2.99,172.9,-9999.0,'1111122,1111122,1111122' 